TimeMDT,TemperatureF,Dew PointF,Humidity,Sea Level PressureIn,VisibilityMPH,Wind Direction,Wind SpeedMPH,Gust SpeedMPH,PrecipitationIn,Events,Conditions,WindDirDegrees,DateUTC
12:23 AM,37.4,37.4,100,29.97,6.0,Calm,Calm,-,0.02,Rain,Light Rain,0,2012-10-28 06:23:00
12:53 AM,37.9,37.0,97,30.00,9.0,Calm,Calm,-,0.05,Rain,Light Rain,0,2012-10-28 06:53:00
1:53 AM,37.9,37.0,97,30.00,6.0,Calm,Calm,-,0.00,Rain,Light Rain,0,2012-10-28 07:53:00
2:53 AM,37.9,37.0,97,29.98,5.0,Calm,Calm,-,0.02,Rain,Light Rain,0,2012-10-28 08:53:00
3:51 AM,37.4,37.4,100,29.91,6.0,Calm,Calm,-,0.02,Rain,Light Rain,0,2012-10-28 09:51:00
3:53 AM,37.9,37.0,97,29.97,5.0,Calm,Calm,-,0.02,Rain,Light Rain,0,2012-10-28 09:53:00
4:09 AM,37.4,37.4,100,29.92,2.0,Calm,Calm,-,0.00,,Overcast,0,2012-10-28 10:09:00
4:19 AM,37.4,37.4,100,29.91,3.0,Calm,Calm,-,0.00,Rain,Light Rain,0,2012-10-28 10:19:00
4:27 AM,37.4,37.4,100,29.91,4.0,Calm,Calm,-,0.00,,Overcast,0,2012-10-28 10:27:00
4:53 AM,37.9,37.0,97,29.97,5.0,Calm,Calm,-,0.00,,Overcast,0,2012-10-28 10:53:00
5:00 AM,37.4,37.4,100,29.92,5.0,Calm,Calm,-,N/A,,Overcast,0,2012-10-28 11:00:00
5:53 AM,37.9,37.0,97,29.97,6.0,Calm,Calm,-,0.00,Rain,Light Rain,0,2012-10-28 11:53:00
6:24 AM,37.4,37.4,100,29.92,6.0,Calm,Calm,-,0.03,Rain,Light Rain,0,2012-10-28 12:24:00
6:53 AM,37.9,37.0,97,29.98,6.0,WNW,3.5,-,0.03,Rain,Light Rain,300,2012-10-28 12:53:00
7:53 AM,37.9,37.9,100,29.98,3.0,Calm,Calm,-,0.01,,Overcast,0,2012-10-28 13:53:00
8:02 AM,37.4,37.4,100,29.93,3.0,Calm,Calm,-,N/A,,Overcast,0,2012-10-28 14:02:00
8:53 AM,39.0,37.9,96,29.98,2.5,NW,3.5,-,0.00,Rain,Light Rain,320,2012-10-28 14:53:00
9:08 AM,39.2,37.4,93,29.93,1.5,Calm,Calm,-,0.01,Rain,Light Rain,0,2012-10-28 15:08:00
9:26 AM,39.2,37.4,93,29.93,2.0,WNW,3.5,-,0.02,Rain,Light Rain,300,2012-10-28 15:26:00
9:33 AM,39.2,37.4,93,29.93,2.0,Calm,Calm,-,0.02,Rain,Light Rain,0,2012-10-28 15:33:00
9:49 AM,39.2,37.4,93,29.94,3.0,Calm,Calm,-,0.02,Rain,Light Rain,0,2012-10-28 15:49:00
9:53 AM,39.0,39.0,100,29.99,3.0,Calm,Calm,-,0.02,Rain,Light Rain,0,2012-10-28 15:53:00
10:05 AM,39.2,39.2,100,29.94,2.0,Calm,Calm,-,0.01,Rain,Light Rain,0,2012-10-28 16:05:00
10:17 AM,39.2,37.4,93,29.94,2.0,Calm,Calm,-,0.01,Rain,Light Rain,0,2012-10-28 16:17:00
10:53 AM,39.2,37.4,93,29.94,2.0,Calm,Calm,-,N/A,,Overcast,0,2012-10-28 16:53:00
11:00 AM,39.2,39.2,100,29.95,2.0,West,3.5,-,N/A,Rain,Light Rain,280,2012-10-28 17:00:00
11:53 AM,39.9,39.0,97,29.99,4.0,West,3.5,-,0.00,Rain,Light Rain,270,2012-10-28 17:53:00
12:02 PM,39.2,39.2,100,29.94,8.0,WNW,4.6,-,0.00,Rain,Light Rain,300,2012-10-28 18:02:00
12:53 PM,41.0,39.9,96,29.99,5.0,Calm,Calm,-,0.02,Rain,Light Rain,0,2012-10-28 18:53:00
1:53 PM,43.0,41.0,93,29.99,6.0,West,3.5,-,0.02,Rain,Light Rain,280,2012-10-28 19:53:00
2:00 PM,42.8,41.0,93,29.95,5.0,West,3.5,-,0.01,Rain,Light Rain,280,2012-10-28 20:00:00
2:53 PM,43.0,42.1,97,29.99,5.0,Calm,Calm,-,0.03,Rain,Light Rain,0,2012-10-28 20:53:00
3:53 PM,46.0,44.1,93,29.98,10.0,WSW,4.6,-,0.01,Rain,Light Rain,250,2012-10-28 21:53:00
4:53 PM,46.0,44.1,93,29.99,10.0,Calm,Calm,-,0.00,,Overcast,0,2012-10-28 22:53:00
5:50 PM,46.4,44.6,93,29.94,8.0,Calm,Calm,-,N/A,,Overcast,0,2012-10-28 23:50:00
5:53 PM,46.9,45.0,93,29.98,10.0,Calm,Calm,-,N/A,,Overcast,0,2012-10-28 23:53:00
6:53 PM,46.0,45.0,96,29.99,9.0,NW,5.8,-,0.00,,Overcast,310,2012-10-29 00:53:00
7:53 PM,45.0,44.1,97,29.99,8.0,West,8.1,-,N/A,,Overcast,260,2012-10-29 01:53:00
8:15 PM,44.6,44.6,100,29.96,4.0,Calm,Calm,-,N/A,,Overcast,0,2012-10-29 02:15:00
8:53 PM,45.0,44.1,97,30.00,7.0,SE,5.8,-,0.00,,Overcast,140,2012-10-29 02:53:00
9:29 PM,44.6,44.6,100,29.96,4.0,Calm,Calm,-,0.00,,Overcast,0,2012-10-29 03:29:00
9:53 PM,45.0,44.1,97,30.00,2.5,Calm,Calm,-,0.00,,Overcast,0,2012-10-29 03:53:00
10:17 PM,44.6,44.6,100,29.96,3.0,Calm,Calm,-,N/A,,Overcast,0,2012-10-29 04:17:00
10:53 PM,45.0,44.1,97,30.00,3.0,Calm,Calm,-,N/A,,Overcast,0,2012-10-29 04:53:00
11:00 PM,44.6,44.6,100,29.96,3.0,Calm,Calm,-,N/A,,Overcast,0,2012-10-29 05:00:00
11:03 PM,44.6,44.6,100,29.96,2.5,Calm,Calm,-,N/A,,Overcast,0,2012-10-29 05:03:00
11:09 PM,44.6,44.6,100,29.96,3.0,Calm,Calm,-,N/A,,Overcast,0,2012-10-29 05:09:00
11:53 PM,45.0,44.1,97,30.00,5.0,Calm,Calm,-,0.00,Rain,Light Rain,0,2012-10-29 05:53:00